Flag for India Weather past 2 weeks in Bhinga, Uttar Pradesh, India

Now
57 °F

Fog.


Feels Like: 57 °F
Forecast: 48 / 69 °F
Wind: 2 mph from North

Location: Lucknow / Amausi

Current Time: Jan 28, 2015 at 8:17:56 PM

Latest Report: Jan 28, 2015 at 7:30 PM


Visibility: 1 mi

Pressure: 30.01 "Hg

Humidity: 82%

Dew point: 52 °F

Location of BhingaLocation

Historic Weather in Bhinga — Graph

°F

Bhinga temperature yesterday

Maximum temperature yesterday: 70 °F (at 12:30 PM)
Minimum temperature yesterday: 55 °F (at 7:00 AM)
Average temperature yesterday: 61 °F

Past Weeks' High & Low Weather Summary

 TemperatureHumidityPressure
High135 °F (Jan 24, 6:30 PM)100% (Jan 14, 1:00 AM)30.39 "Hg (Jan 14, 1:00 AM)
Low45 °F (Jan 14, 1:00 AM)8% (Jan 24, 6:30 PM)29.95 "Hg (Jan 28, 4:00 PM)
Average56 °F84%30.08 "Hg
* Reported Jan 13 6:30 PM — Jan 28 7:00 PM, Bhinga, Weather by CustomWeather, © 2014

Note: Actual official high and low records may vary slightly from our data, if they occured in-between our weather recording intervals... More about our weather records

Advertising

Bhinga weather history for previous 24 hours

 ConditionsComfort  
Time TempWeatherWind HumidityBarometerVisibility
7:00 PM
Jan 28
59 °FHaze.2 mph77%29.98 "Hg1 mi
6:30 PM63 °FHaze.2 mph68%29.98 "Hg1 mi
6:00 PM64 °FHaze.3 mph64%29.98 "Hg1 mi
5:30 PM64 °FHaze.3 mph64%29.95 "Hg1 mi
5:00 PM66 °FHaze.5 mph56%29.95 "Hg1 mi
4:30 PM68 °FHaze.5 mph49%29.95 "Hg2 mi
4:00 PM68 °FScattered clouds.5 mph46%29.95 "Hg2 mi
3:30 PM68 °FScattered clouds.5 mph46%29.98 "Hg2 mi
3:00 PM68 °FScattered clouds.5 mph53%29.98 "Hg2 mi
2:30 PM68 °FScattered clouds.2 mph53%29.98 "Hg2 mi
2:00 PM68 °FScattered clouds.3 mph49%29.98 "Hg2 mi
1:30 PM68 °FScattered clouds.3 mph49%29.98 "Hg2 mi
1:00 PM68 °FScattered clouds.3 mph53%30.01 "Hg2 mi
12:00 PM66 °FScattered clouds.2 mph68%30.04 "Hg1 mi
11:30 AM64 °FHaze.2 mph73%30.07 "Hg1 mi
11:00 AM63 °FFog.2 mph77%30.09 "Hg1 mi
10:30 AM61 °FFog.2 mph77%30.07 "Hg1 mi
10:00 AM57 °FFog.2 mph88%30.07 "Hg1 mi
9:30 AM57 °FFog.2 mph88%30.07 "Hg1 mi
8:30 AM54 °FFog.No wind94%30.04 "Hg1 mi
7:30 AM52 °FFog.No wind94%30.01 "Hg0 mi
7:00 AM52 °FFog.No wind94%30.01 "Hg1 mi
6:30 AM54 °FFog.No wind94%30.01 "Hg1 mi
6:00 AM54 °FFog.3 mph94%29.98 "Hg1 mi
5:30 AM54 °FFog.3 mph94%29.98 "Hg1 mi
4:00 AM55 °FFog.No wind94%30.01 "Hg1 mi
3:00 AM57 °FFog.No wind94%30.01 "Hg1 mi
1:00 AM57 °FFog.No wind94%30.04 "Hg1 mi
12:00 AM59 °FFog.No wind94%30.04 "Hg1 mi
11:00 PM
Jan 27
59 °FFog.No wind94%30.04 "Hg1 mi
10:00 PM59 °FFog.No wind94%30.04 "Hg1 mi
9:00 PM61 °FFog.No wind88%30.04 "Hg1 mi
8:30 PM61 °FFog.No wind94%30.01 "Hg1 mi
8:00 PM61 °FFog.No wind88%30.01 "Hg1 mi
Weather by CustomWeather, © 2014

See weather overviewHow to use our weather pages